[[{"header":{"parameterUnit":"m.s-1","parameterCategory":2,"la1":30.2991,"la2":30.254,"lo1":-89.0895,"lo2":-89.0444,"dy":0.0017,"dx":0.0017,"nx":28,"ny":28,"refTime":"2024-10-16T21:00:00:Z","depth":"0","parameterNumber":2,"parameterNumberName":"U-component_of_CURRENTS"},"data":[0,0,0,0,0,0,0,0,0,0,0,0,0,0,0,0,0,0,0,0,0,0,0,0,0,0,0,0,0,0,0,0,0,0,0,0,0,0,0,0,0,0,0,0,0,0,0,0,0,0,0,0,0,0,0,0,0,0,-0.2367,-0.2367,0,-0.2373,-0.2373,-0.2372,-0.2351,-0.235,-0.235,-0.235,-0.2314,-0.2313,-0.2312,0,0,0,0,0,0,0,0,0,0,0,0,0,-0.2306,-0.2307,-0.2367,-0.2367,-0.2368,-0.2373,-0.2373,-0.2372,-0.2351,-0.235,-0.235,-0.2349,-0.2314,-0.2313,-0.2312,0,0,0,0,0,0,0,0,0,0,0,0,0,-0.2321,-0.2307,-0.2367,-0.236,-0.236,-0.2373,-0.2373,-0.2372,-0.2351,-0.235,-0.235,-0.2349,-0.2314,-0.2313,-0.2312,-0.2316,0,0,-0.2309,-0.2309,0,0,0,0,0,0,0,0,-0.232,-0.2323,-0.2361,-0.2361,-0.236,-0.2363,-0.2338,-0.2353,-0.2351,-0.2351,-0.235,-0.2349,-0.2329,-0.2327,-0.2325,-0.2315,-0.2313,-0.2309,-0.2309,-0.2308,-0.2308,0,0,0,0,0,0,0,-0.2319,-0.2322,-0.2366,-0.2361,-0.2361,-0.2346,-0.2348,-0.234,-0.2339,-0.2351,-0.235,-0.2356,-0.2328,-0.2326,-0.2324,-0.2313,-0.2309,-0.2308,-0.2308,-0.2307,-0.2303,-0.2304,0,0,0,0,0,0,-0.2328,-0.2322,-0.2366,-0.2366,-0.2342,-0.2348,-0.2349,-0.236,-0.234,-0.2338,-0.2357,-0.2355,-0.2328,-0.2325,-0.2322,-0.2331,-0.2308,-0.2307,-0.2307,-0.2303,-0.2303,-0.2304,0,0,0,0,0,0,-0.2326,-0.2332,-0.2366,-0.2346,-0.235,-0.235,-0.2362,-0.2361,-0.236,-0.2346,-0.2342,-0.2358,-0.2327,-0.2324,-0.2318,-0.2329,-0.2307,-0.2306,-0.2302,-0.2303,-0.2303,-0.2345,0,0,0,0,0,0,-0.2325,-0.2331,-0.2336,-0.2347,-0.2352,-0.2381,-0.2363,-0.2361,-0.2367,-0.2365,-0.2346,-0.2342,-0.2327,-0.232,-0.2317,-0.2327,-0.2305,-0.2302,-0.2302,-0.2303,-0.2343,-0.2347,-0.235,0,0,0,0,0,-0.2322,-0.2336,-0.2337,-0.2342,-0.2361,-0.2382,-0.2382,-0.2378,-0.2367,-0.2374,-0.2357,-0.2343,-0.2323,-0.2319,-0.2316,-0.2326,-0.2301,-0.2302,-0.2303,-0.2341,-0.2346,-0.235,0,0,0,0,0,0,-0.231,-0.2336,-0.2336,-0.2356,-0.2371,-0.2379,-0.2383,-0.2383,-0.2375,-0.2368,-0.2348,-0.2344,-0.2343,-0.233,-0.2326,-0.2327,-0.231,-0.2311,-0.234,-0.2344,-0.2348,-0.2358,-0.2304,0,0,0,0,0,-0.2312,-0.2326,-0.235,-0.2363,-0.2374,-0.2379,-0.2384,-0.2386,-0.2385,-0.2381,-0.2368,-0.2353,-0.2345,-0.2341,-0.2331,-0.2333,-0.2334,-0.2337,-0.2341,-0.2344,-0.235,-0.2356,-0.2361,-0.2307,-0.2307,-0.2307,0,0,-0.2308,-0.2325,-0.2332,-0.2361,-0.2368,-0.2391,-0.238,-0.2395,-0.2408,-0.2378,-0.2382,-0.2366,-0.2349,-0.235,-0.2348,-0.234,-0.2364,-0.2345,-0.2348,-0.2353,-0.2358,-0.2363,-0.2368,-0.2308,-0.2308,-0.2308,0,0,-0.2315,-0.2328,-0.2344,-0.2364,-0.2388,-0.2397,-0.2405,-0.2419,-0.2419,-0.2425,-0.2405,-0.2398,-0.2385,-0.2377,-0.2371,-0.239,-0.2382,-0.2385,-0.2412,-0.2418,-0.2423,-0.2427,-0.2452,-0.2458,-0.2388,-0.2388,-0.2388,0,-0.2309,-0.2336,-0.2351,-0.2379,-0.2395,-0.2404,-0.2428,-0.2436,-0.2443,-0.2447,-0.2431,-0.2418,-0.24,-0.2407,-0.2409,-0.2399,-0.2406,-0.2397,-0.2424,-0.2428,-0.2431,-0.2456,-0.2462,-0.239,-0.239,-0.2389,-0.2389,0,-0.233,-0.2355,-0.2369,-0.2406,-0.2427,-0.2448,-0.2472,-0.2484,-0.2481,-0.2485,-0.2489,-0.2466,-0.2457,-0.2452,-0.2434,-0.2451,-0.2451,-0.2428,-0.2415,-0.2439,-0.2463,-0.2469,-0.2393,-0.2392,-0.2391,-0.2391,0,0,-0.2306,-0.2371,-0.2374,-0.2399,-0.2443,-0.2462,-0.2493,-0.2522,-0.2542,-0.2536,-0.2557,-0.2534,-0.2519,-0.2511,-0.249,-0.2493,-0.2523,-0.2472,-0.2472,-0.2502,-0.2554,-0.259,-0.26,-0.2504,-0.2505,-0.2505,-0.2568,0,-0.2315,-0.2366,-0.2398,-0.2443,-0.2472,-0.2502,-0.2533,-0.2559,-0.2571,-0.2594,-0.2578,-0.2582,-0.2543,-0.2537,-0.2536,-0.2525,-0.2536,-0.2509,-0.2522,-0.2523,-0.2555,-0.2607,-0.2587,-0.2644,-0.2573,-0.2574,-0.2574,0,-0.2319,-0.2356,-0.2401,-0.2469,-0.2484,-0.251,-0.2559,-0.2589,-0.2627,-0.2638,-0.2643,-0.2636,-0.264,-0.26,-0.2603,-0.2588,-0.2575,-0.2567,-0.2569,-0.2592,-0.2569,-0.2603,-0.2656,-0.2652,-0.2583,-0.2582,-0.2581,0,-0.2283,-0.2356,-0.2389,-0.2412,-0.2489,-0.2508,-0.2541,-0.2589,-0.2619,-0.266,-0.2686,-0.269,-0.2693,-0.2678,-0.2661,-0.2631,-0.2679,-0.2632,-0.266,-0.2663,-0.2644,-0.2644,-0.2696,-0.2641,-0.2641,-0.2641,-0.2641,0,-0.2277,-0.2303,-0.2372,-0.2391,-0.243,-0.2488,-0.2528,-0.2567,-0.2628,-0.2673,-0.2694,-0.2731,-0.271,-0.2733,-0.2702,-0.2718,-0.2711,-0.2686,-0.2686,-0.266,-0.2661,-0.2653,-0.2643,-0.2643,-0.2643,-0.2642,-0.2642,0,-0.2227,-0.2278,-0.2318,-0.2391,-0.2413,-0.2431,-0.2509,-0.2542,-0.2612,-0.2674,-0.269,-0.2763,-0.2805,-0.2806,-0.2805,-0.278,-0.2762,-0.2787,-0.2775,-0.2772,-0.2782,-0.2776,-0.2774,-0.2705,-0.2827,-0.2828,-0.2829,0,-0.2205,-0.2219,-0.229,-0.2306,-0.2334,-0.2378,-0.2411,-0.2504,-0.2551,-0.2694,-0.2724,-0.2807,-0.2868,-0.2918,-0.2915,-0.292,-0.2824,-0.2871,-0.2803,-0.2809,-0.28,-0.2731,-0.2665,-0.2797,-0.2798,-0.2799,-0.2799,0,-0.2145,-0.2165,-0.2192,-0.223,-0.2262,-0.231,-0.2371,-0.2417,-0.2543,-0.2634,-0.2758,-0.2831,-0.2942,-0.2981,-0.3012,-0.2971,-0.2829,-0.2885,-0.2881,-0.279,-0.2726,-0.265,-0.2744,-0.2805,-0.2804,-0.2804,-0.2804,-0.2803,-0.2074,-0.2073,-0.2103,-0.2131,-0.2175,-0.222,-0.2222,-0.2349,-0.2444,-0.26,-0.2729,-0.2899,-0.2995,-0.3063,-0.3039,-0.3,-0.2911,-0.2894,-0.2891,-0.2824,-0.2744,-0.2876,-0.2939,-0.2939,-0.2939,-0.2939,-0.2939,0,-0.1974,-0.1985,-0.2004,-0.2034,-0.2041,-0.2101,-0.2174,-0.2184,-0.2287,-0.2554,-0.2697,-0.3008,-0.3052,-0.3115,-0.3136,-0.3043,-0.2899,-0.2925,-0.281,-0.274,-0.2863,-0.2849,-0.2907,-0.2907,-0.2907,-0.2907,-0.2907,-0.2907,-0.1919,-0.1895,-0.191,-0.1883,-0.1903,-0.188,-0.1892,-0.1968,-0.2123,-0.2432,-0.2753,-0.303,-0.3091,-0.3313,-0.3211,-0.3065,-0.2917,-0.2839,-0.2776,-0.2879,-0.2875,-0.287,-0.2855,-0.2914,-0.2914,-0.2579,-0.2577,-0.2576]},{"header":{"parameterUnit":"m.s-1","parameterCategory":2,"la1":30.2991,"la2":30.254,"lo1":-89.0895,"lo2":-89.0444,"dy":0.0017,"dx":0.0017,"nx":28,"ny":28,"refTime":"2024-10-16T21:00:00:Z","depth":"0","parameterNumber":3,"parameterNumberName":"V-component_of_CURRENTS"},"data":[0,0,0,0,0,0,0,0,0,0,0,0,0,0,0,0,0,0,0,0,0,0,0,0,0,0,0,0,0,0,0,0,0,0,0,0,0,0,0,0,0,0,0,0,0,0,0,0,0,0,0,0,0,0,0,0,0,0,-0.0371,-0.037,0,-0.0275,-0.0274,-0.0273,-0.0221,-0.0221,-0.0221,-0.0221,-0.0123,-0.0121,-0.0119,0,0,0,0,0,0,0,0,0,0,0,0,0,-0.0463,-0.0462,-0.0372,-0.037,-0.0369,-0.0276,-0.0274,-0.0273,-0.0221,-0.0221,-0.0221,-0.0221,-0.0124,-0.0121,-0.0118,0,0,0,0,0,0,0,0,0,0,0,0,0,-0.0401,-0.0462,-0.0372,-0.0332,-0.0328,-0.0276,-0.0274,-0.0273,-0.0221,-0.0221,-0.0221,-0.0221,-0.0125,-0.0122,-0.0118,-0.0098,0,0,-0.0106,-0.0105,0,0,0,0,0,0,0,0,-0.0405,-0.0398,-0.0339,-0.0335,-0.033,-0.026,-0.0271,-0.0214,-0.0221,-0.0262,-0.0221,-0.0221,-0.0169,-0.0162,-0.0144,-0.0094,-0.009,-0.0106,-0.0104,-0.0102,-0.0101,0,0,0,0,0,0,0,-0.0409,-0.0401,-0.0333,-0.0338,-0.0332,-0.0303,-0.0294,-0.0259,-0.0218,-0.0258,-0.0254,-0.0244,-0.0166,-0.0148,-0.0141,-0.0088,-0.0106,-0.0103,-0.0101,-0.0099,-0.001,-0.001,0,0,0,0,0,0,-0.0423,-0.0406,-0.0336,-0.0331,-0.0367,-0.0302,-0.0292,-0.0283,-0.0218,-0.0208,-0.0244,-0.0242,-0.0154,-0.0146,-0.0138,-0.0106,-0.0102,-0.0099,-0.0097,-0.001,-0.001,-0.001,0,0,0,0,0,0,-0.0426,-0.0418,-0.034,-0.0366,-0.0354,-0.0301,-0.029,-0.0281,-0.0262,-0.0207,-0.0197,-0.0235,-0.0154,-0.0143,-0.0105,-0.0102,-0.0097,-0.0094,-0.001,-0.001,-0.001,-0.0045,0,0,0,0,0,0,-0.0429,-0.042,-0.042,-0.0367,-0.0353,-0.0314,-0.029,-0.0279,-0.0256,-0.0252,-0.0196,-0.0186,-0.0153,-0.0111,-0.0102,-0.0097,-0.0091,-0.001,-0.001,-0.001,-0.0044,-0.0046,-0.0048,0,0,0,0,0,-0.0432,-0.0435,-0.0421,-0.0413,-0.0355,-0.0314,-0.0304,-0.0265,-0.0256,-0.0248,-0.0209,-0.0188,-0.0103,-0.0108,-0.0097,-0.0091,-0.001,-0.001,-0.001,-0.0044,-0.0046,-0.0048,0,0,0,0,0,0,-0.0475,-0.0428,-0.0412,-0.04,-0.0362,-0.0305,-0.0296,-0.027,-0.0233,-0.0232,-0.0183,-0.017,-0.0137,-0.011,-0.0117,-0.0065,-0.0055,-0.0052,-0.0084,-0.0086,-0.0088,-0.0098,-0.0088,0,0,0,0,0,-0.0486,-0.0476,-0.0424,-0.0416,-0.04,-0.035,-0.033,-0.0303,-0.0262,-0.0245,-0.0204,-0.0164,-0.0127,-0.0105,-0.0069,-0.0039,-0.0016,-0.0029,-0.0031,-0.0033,-0.0034,0.0001,0.0002,-0.0009,-0.0009,-0.0009,0,0,-0.0501,-0.0474,-0.0469,-0.0424,-0.0394,-0.0372,-0.0338,-0.0311,-0.029,-0.0241,-0.0206,-0.0169,-0.0121,-0.0086,-0.007,-0.0063,-0.0018,-0.0032,-0.0034,-0.0034,0.0001,0.0002,0.0003,-0.0009,-0.0009,-0.0009,0,0,-0.0528,-0.0503,-0.0503,-0.0473,-0.043,-0.0395,-0.039,-0.0334,-0.0307,-0.0268,-0.023,-0.0192,-0.0134,-0.0096,-0.007,-0.0062,-0.0031,-0.0053,-0.0066,-0.0033,-0.0032,-0.0031,-0.0002,0.0002,-0.0052,-0.0052,-0.0052,0,-0.055,-0.0539,-0.0497,-0.0485,-0.0466,-0.0409,-0.0402,-0.0363,-0.0301,-0.0279,-0.0265,-0.0176,-0.0138,-0.009,-0.0085,-0.0066,-0.0045,-0.0062,-0.0036,-0.0034,-0.0032,-0.0003,0.0002,-0.0053,-0.0053,-0.0053,-0.0053,0,-0.057,-0.0561,-0.0559,-0.0526,-0.0498,-0.0484,-0.0424,-0.0395,-0.0358,-0.0314,-0.0261,-0.0202,-0.0151,-0.0131,-0.0103,-0.0068,-0.0057,-0.0046,-0.0033,-0.0034,-0.0002,0.0003,-0.0056,-0.0055,-0.0055,-0.0054,0,0,-0.0619,-0.0583,-0.0582,-0.058,-0.052,-0.0504,-0.0465,-0.0414,-0.0395,-0.0328,-0.0296,-0.0223,-0.019,-0.0159,-0.0116,-0.0081,-0.0048,-0.006,-0.0058,-0.0037,0.0023,0.008,0.0092,-0.0034,-0.0033,-0.0032,0.0038,0,-0.065,-0.0656,-0.0616,-0.0615,-0.0614,-0.0549,-0.0521,-0.0466,-0.0411,-0.0365,-0.0288,-0.0245,-0.0199,-0.0179,-0.0134,-0.0066,-0.0034,-0.0068,0.0025,0.0027,0.0075,0.01,0.0122,0.019,0.0044,0.0045,0.0045,0,-0.0679,-0.0682,-0.0694,-0.067,-0.0662,-0.0647,-0.0598,-0.0562,-0.0474,-0.0433,-0.0363,-0.03,-0.0222,-0.0198,-0.0076,-0.01,-0.0047,0.0003,0.0007,0.0078,0.0096,0.0169,0.0207,0.0355,0.0055,0.0054,0.0053,0,-0.0746,-0.0733,-0.0752,-0.0742,-0.0702,-0.0693,-0.0665,-0.0589,-0.0566,-0.0476,-0.0452,-0.034,-0.0291,-0.0198,-0.0071,-0.008,0.0056,0.0055,0.0156,0.016,0.0206,0.0214,0.0396,0.012,0.012,0.012,0.012,0,-0.0793,-0.0805,-0.0789,-0.0799,-0.0821,-0.0762,-0.0761,-0.0711,-0.0646,-0.0625,-0.0499,-0.0456,-0.0291,-0.0182,-0.0081,0.0074,0.0053,0.0163,0.0188,0.0195,0.0201,0.0354,0.0419,0.0122,0.0122,0.0121,0.0121,0,-0.0856,-0.0843,-0.0869,-0.0855,-0.0855,-0.087,-0.0841,-0.0839,-0.0758,-0.0727,-0.0703,-0.0541,-0.0384,-0.0212,-0.0046,0.0062,0.0284,0.0246,0.0249,0.0274,0.0507,0.0567,0.0772,0.0792,0.0369,0.037,0.0372,0,-0.0885,-0.0908,-0.0931,-0.0961,-0.0957,-0.0969,-0.0981,-0.0912,-0.0904,-0.0781,-0.0776,-0.0602,-0.0478,-0.0177,0.0058,0.0274,0.0358,0.0408,0.0399,0.0543,0.0628,0.0668,0.067,0.0441,0.0443,0.0445,0.0446,0,-0.0944,-0.0955,-0.0984,-0.1058,-0.1089,-0.1119,-0.1122,-0.1134,-0.1047,-0.1004,-0.0909,-0.0792,-0.0445,-0.0146,0.0182,0.0305,0.0519,0.0449,0.0599,0.0712,0.0767,0.0788,0.0368,0.0461,0.046,0.0459,0.0458,0.0457,-0.0987,-0.1035,-0.1088,-0.1157,-0.1206,-0.1262,-0.1297,-0.1292,-0.1287,-0.1207,-0.1039,-0.0836,-0.0318,0.0167,0.0321,0.0707,0.0649,0.0795,0.0857,0.0886,0.0916,0.0536,0.0659,0.0659,0.0658,0.0658,0.0658,0,-0.1041,-0.1104,-0.1182,-0.127,-0.1355,-0.1346,-0.1391,-0.1425,-0.145,-0.1302,-0.1179,-0.0593,-0.0114,0.0349,0.0947,0.1128,0.1103,0.1197,0.1255,0.1231,0.0905,0.092,0.1105,0.1105,0.1105,0.1105,0.1105,0.1104,-0.1072,-0.1169,-0.1224,-0.1387,-0.145,-0.1551,-0.1585,-0.1624,-0.1552,-0.1339,-0.1012,-0.0727,0.0075,0.1098,0.1594,0.1584,0.1664,0.1658,0.1688,0.1483,0.145,0.1418,0.1449,0.1742,0.1743,0.1961,0.1964,0.1966]}],[{"header":{"parameterUnit":"m.s-1","parameterCategory":2,"la1":30.2991,"la2":30.254,"lo1":-89.0895,"lo2":-89.0444,"dy":0.0017,"dx":0.0017,"nx":28,"ny":28,"refTime":"2024-10-16T21:00:00:Z","depth":"2","parameterNumber":2,"parameterNumberName":"U-component_of_CURRENTS"},"data":[0,0,0,0,0,0,0,0,0,0,0,0,0,0,0,0,0,0,0,0,0,0,0,0,0,0,0,0,0,0,0,0,0,0,0,0,0,0,0,0,0,0,0,0,0,0,0,0,0,0,0,0,0,0,0,0,0,0,-0.2306,-0.2306,0,-0.2312,-0.2311,-0.2311,-0.2292,-0.2291,-0.2291,-0.2291,-0.2257,-0.2256,-0.2256,0,0,0,0,0,0,0,0,0,0,0,0,0,-0.2246,-0.2247,-0.2306,-0.2306,-0.2307,-0.2312,-0.2311,-0.2311,-0.2292,-0.2291,-0.2291,-0.2291,-0.2257,-0.2256,-0.2255,0,0,0,0,0,0,0,0,0,0,0,0,0,-0.2261,-0.2247,-0.2306,-0.23,-0.23,-0.2312,-0.2311,-0.2311,-0.2292,-0.2291,-0.2291,-0.229,-0.2257,-0.2256,-0.2255,-0.2258,0,0,-0.2252,-0.2252,0,0,0,0,0,0,0,0,-0.226,-0.2263,-0.23,-0.23,-0.23,-0.2303,-0.2278,-0.2293,-0.2292,-0.2291,-0.2291,-0.229,-0.2271,-0.2269,-0.2267,-0.2256,-0.2255,-0.2252,-0.2252,-0.2251,-0.2251,0,0,0,0,0,0,0,-0.2259,-0.2262,-0.2305,-0.2301,-0.2301,-0.2286,-0.2288,-0.228,-0.228,-0.2291,-0.2291,-0.2297,-0.227,-0.2268,-0.2266,-0.2254,-0.2252,-0.2252,-0.2251,-0.2251,-0.2247,-0.2247,0,0,0,0,0,0,-0.2268,-0.2262,-0.2305,-0.2305,-0.2282,-0.2288,-0.229,-0.23,-0.2281,-0.2279,-0.2297,-0.2296,-0.227,-0.2267,-0.2265,-0.2274,-0.2251,-0.225,-0.225,-0.2246,-0.2247,-0.2247,0,0,0,0,0,0,-0.2266,-0.2272,-0.2304,-0.2286,-0.2289,-0.229,-0.2302,-0.2301,-0.2301,-0.2287,-0.2283,-0.23,-0.2269,-0.2266,-0.2261,-0.2273,-0.225,-0.2249,-0.2246,-0.2246,-0.2247,-0.2289,0,0,0,0,0,0,-0.2265,-0.2271,-0.2276,-0.2287,-0.2291,-0.2319,-0.2302,-0.2301,-0.2307,-0.2306,-0.2288,-0.2284,-0.2269,-0.2263,-0.226,-0.2271,-0.2248,-0.2245,-0.2246,-0.2247,-0.2287,-0.2291,-0.2294,0,0,0,0,0,-0.2262,-0.2276,-0.2277,-0.2282,-0.23,-0.232,-0.2321,-0.2317,-0.2308,-0.2314,-0.2299,-0.2285,-0.2266,-0.2262,-0.2259,-0.227,-0.2245,-0.2246,-0.2247,-0.2285,-0.229,-0.2294,0,0,0,0,0,0,-0.2251,-0.2276,-0.2277,-0.2296,-0.2311,-0.2319,-0.2323,-0.2322,-0.2316,-0.231,-0.229,-0.2286,-0.2286,-0.2273,-0.2269,-0.2271,-0.2254,-0.2254,-0.2284,-0.2288,-0.2292,-0.2302,-0.2248,0,0,0,0,0,-0.2253,-0.2267,-0.229,-0.2303,-0.2313,-0.2318,-0.2324,-0.2326,-0.2325,-0.2322,-0.231,-0.2296,-0.2288,-0.2284,-0.2274,-0.2277,-0.2277,-0.2281,-0.2285,-0.2288,-0.2295,-0.23,-0.2305,-0.2251,-0.2251,-0.2251,0,0,-0.2249,-0.2266,-0.2272,-0.2301,-0.2308,-0.2331,-0.232,-0.2335,-0.2349,-0.2319,-0.2324,-0.2309,-0.2292,-0.2293,-0.2292,-0.2284,-0.2308,-0.229,-0.2293,-0.2297,-0.2302,-0.2307,-0.2312,-0.2252,-0.2251,-0.2251,0,0,-0.2256,-0.2269,-0.2285,-0.2304,-0.2328,-0.2337,-0.2346,-0.2359,-0.236,-0.2366,-0.2348,-0.2341,-0.2329,-0.2321,-0.2315,-0.2335,-0.2327,-0.233,-0.2358,-0.2364,-0.2369,-0.2373,-0.2397,-0.2403,-0.2333,-0.2333,-0.2333,0,-0.2251,-0.2277,-0.2292,-0.2318,-0.2335,-0.2344,-0.2368,-0.2376,-0.2384,-0.2388,-0.2373,-0.2362,-0.2344,-0.2351,-0.2354,-0.2344,-0.2351,-0.2343,-0.237,-0.2373,-0.2377,-0.2401,-0.2407,-0.2335,-0.2335,-0.2334,-0.2334,0,-0.2271,-0.2296,-0.2309,-0.2345,-0.2366,-0.2387,-0.2411,-0.2424,-0.2422,-0.2427,-0.2432,-0.2409,-0.2402,-0.2397,-0.2379,-0.2397,-0.2397,-0.2374,-0.236,-0.2385,-0.2409,-0.2415,-0.2338,-0.2337,-0.2337,-0.2336,0,0,-0.2248,-0.2311,-0.2314,-0.2338,-0.2382,-0.2401,-0.2432,-0.2461,-0.2481,-0.2477,-0.2498,-0.2477,-0.2463,-0.2455,-0.2435,-0.2439,-0.2469,-0.2419,-0.2418,-0.2448,-0.2501,-0.2534,-0.2543,-0.2451,-0.2451,-0.2452,-0.2514,0,-0.2256,-0.2305,-0.2337,-0.2382,-0.241,-0.244,-0.2471,-0.2497,-0.2511,-0.2534,-0.252,-0.2525,-0.2487,-0.2483,-0.2482,-0.2471,-0.2483,-0.2456,-0.2468,-0.2469,-0.2499,-0.255,-0.2292,-0.2328,-0.2519,-0.252,-0.2521,0,-0.226,-0.2296,-0.234,-0.2407,-0.2422,-0.2448,-0.2498,-0.2527,-0.2567,-0.2578,-0.2585,-0.2579,-0.2584,-0.2545,-0.2549,-0.2534,-0.2522,-0.2514,-0.2516,-0.2536,-0.2513,-0.233,-0.2331,-0.253,-0.2529,-0.2528,-0.2528,0,-0.2225,-0.2296,-0.2328,-0.2351,-0.2426,-0.2447,-0.2479,-0.2528,-0.2559,-0.2601,-0.2628,-0.2633,-0.2637,-0.2623,-0.2607,-0.2577,-0.2625,-0.2578,-0.2604,-0.2607,-0.2384,-0.2367,-0.2588,-0.2588,-0.2588,-0.2588,-0.2588,0,-0.2218,-0.2244,-0.2312,-0.2331,-0.2369,-0.2427,-0.2468,-0.2507,-0.2569,-0.2614,-0.2636,-0.2674,-0.2654,-0.2677,-0.2647,-0.2663,-0.2656,-0.2631,-0.263,-0.2396,-0.238,-0.2542,-0.2536,-0.259,-0.259,-0.2589,-0.2589,0,-0.217,-0.222,-0.2258,-0.2331,-0.2353,-0.2372,-0.245,-0.2483,-0.2554,-0.2617,-0.2633,-0.2706,-0.2747,-0.2749,-0.2748,-0.2724,-0.2726,-0.2729,-0.2479,-0.2449,-0.2693,-0.2688,-0.2763,-0.2765,-0.2767,-0.2768,-0.2769,0,-0.2148,-0.2162,-0.2232,-0.2248,-0.2276,-0.232,-0.2354,-0.2447,-0.2494,-0.2635,-0.2665,-0.2748,-0.2801,-0.2849,-0.2792,-0.2781,-0.2795,-0.2561,-0.2461,-0.2722,-0.2713,-0.2705,-0.2699,-0.2175,-0.2171,-0.2168,-0.2165,0,-0.2088,-0.2109,-0.2135,-0.2173,-0.2206,-0.2253,-0.2315,-0.2359,-0.2485,-0.2568,-0.269,-0.2755,-0.2813,-0.2703,-0.2711,-0.2648,-0.2544,-0.2504,-0.2812,-0.2202,-0.218,-0.2168,-0.2177,-0.2137,-0.214,-0.2142,-0.2143,-0.2145,-0.2019,-0.2018,-0.2048,-0.2076,-0.212,-0.2164,-0.2167,-0.2269,-0.2354,-0.2444,-0.2595,-0.2622,-0.26,-0.2511,-0.2417,-0.2322,-0.2485,-0.2327,-0.2329,-0.2336,-0.2289,-0.2274,-0.224,-0.2243,-0.2246,-0.2248,-0.2251,0,-0.1911,-0.1931,-0.195,-0.198,-0.1978,-0.2047,-0.2119,-0.2093,-0.2157,-0.2288,-0.2368,-0.2183,-0.2154,-0.2144,-0.1971,-0.1972,-0.1861,-0.1872,-0.1688,-0.1718,-0.1745,-0.166,-0.1448,-0.1446,-0.1444,-0.1442,0,0,-0.1855,-0.1826,-0.1841,-0.181,-0.184,-0.1799,-0.181,-0.1811,-0.1854,-0.1864,-0.1894,-0.2066,-0.2122,-0.1794,-0.1705,-0.1561,-0.1615,-0.148,-0.212,-0.1934,-0.1958,-0.2004,-0.191,0,0,0,0,0]},{"header":{"parameterUnit":"m.s-1","parameterCategory":2,"la1":30.2991,"la2":30.254,"lo1":-89.0895,"lo2":-89.0444,"dy":0.0017,"dx":0.0017,"nx":28,"ny":28,"refTime":"2024-10-16T21:00:00:Z","depth":"2","parameterNumber":3,"parameterNumberName":"V-component_of_CURRENTS"},"data":[0,0,0,0,0,0,0,0,0,0,0,0,0,0,0,0,0,0,0,0,0,0,0,0,0,0,0,0,0,0,0,0,0,0,0,0,0,0,0,0,0,0,0,0,0,0,0,0,0,0,0,0,0,0,0,0,0,0,-0.0316,-0.0315,0,-0.0221,-0.022,-0.0219,-0.0169,-0.0169,-0.0168,-0.0168,-0.0072,-0.0069,-0.0067,0,0,0,0,0,0,0,0,0,0,0,0,0,-0.0406,-0.0405,-0.0316,-0.0315,-0.0313,-0.0221,-0.022,-0.0219,-0.0169,-0.0169,-0.0168,-0.0168,-0.0073,-0.007,-0.0067,0,0,0,0,0,0,0,0,0,0,0,0,0,-0.0345,-0.0404,-0.0316,-0.0277,-0.0273,-0.0222,-0.022,-0.0218,-0.0169,-0.0169,-0.0168,-0.0168,-0.0074,-0.007,-0.0066,-0.0046,0,0,-0.0055,-0.0053,0,0,0,0,0,0,0,0,-0.0348,-0.0341,-0.0284,-0.028,-0.0275,-0.0207,-0.0216,-0.0161,-0.0169,-0.0208,-0.0168,-0.0168,-0.0117,-0.011,-0.0092,-0.0042,-0.0038,-0.0055,-0.0052,-0.0051,-0.005,0,0,0,0,0,0,0,-0.0352,-0.0345,-0.0278,-0.0283,-0.0277,-0.0249,-0.024,-0.0205,-0.0164,-0.0205,-0.0201,-0.019,-0.0114,-0.0096,-0.0089,-0.0036,-0.0055,-0.0051,-0.0049,-0.0048,0.0041,0.0041,0,0,0,0,0,0,-0.0367,-0.0349,-0.0281,-0.0275,-0.0312,-0.0247,-0.0238,-0.0229,-0.0165,-0.0155,-0.0191,-0.0188,-0.0102,-0.0094,-0.0086,-0.0055,-0.0051,-0.0047,-0.0045,0.0041,0.0041,0.0041,0,0,0,0,0,0,-0.0369,-0.0362,-0.0285,-0.031,-0.0298,-0.0246,-0.0236,-0.0227,-0.0209,-0.0154,-0.0144,-0.0183,-0.0102,-0.0091,-0.0054,-0.0051,-0.0046,-0.0042,0.0041,0.0041,0.0041,0.0004,0,0,0,0,0,0,-0.0372,-0.0363,-0.0364,-0.0311,-0.0297,-0.0259,-0.0236,-0.0225,-0.0203,-0.0199,-0.0144,-0.0134,-0.0101,-0.006,-0.005,-0.0046,-0.0039,0.0041,0.0041,0.0041,0.0006,0.0003,0.0002,0,0,0,0,0,-0.0376,-0.0378,-0.0365,-0.0356,-0.03,-0.0259,-0.025,-0.0212,-0.0203,-0.0195,-0.0157,-0.0136,-0.0052,-0.0057,-0.0046,-0.004,0.004,0.0041,0.0041,0.0006,0.0004,0.0002,0,0,0,0,0,0,-0.0418,-0.0371,-0.0356,-0.0344,-0.0307,-0.0251,-0.0243,-0.0217,-0.018,-0.018,-0.0131,-0.0119,-0.0086,-0.0059,-0.0066,-0.0014,-0.0004,-0.0001,-0.0034,-0.0036,-0.0038,-0.0048,-0.0036,0,0,0,0,0,-0.0429,-0.0419,-0.0368,-0.036,-0.0345,-0.0296,-0.0276,-0.025,-0.0209,-0.0193,-0.0152,-0.0112,-0.0076,-0.0054,-0.0019,0.0011,0.0035,0.0021,0.0019,0.0017,0.0016,0.0051,0.0052,0.0042,0.0042,0.0042,0,0,-0.0444,-0.0417,-0.0412,-0.0369,-0.0339,-0.0318,-0.0284,-0.0258,-0.0238,-0.0189,-0.0155,-0.0118,-0.007,-0.0036,-0.0019,-0.0013,0.0032,0.0017,0.0015,0.0016,0.0052,0.0053,0.0053,0.0042,0.0042,0.0042,0,0,-0.0471,-0.0446,-0.0447,-0.0418,-0.0376,-0.0341,-0.0337,-0.0282,-0.0256,-0.0217,-0.0179,-0.0141,-0.0084,-0.0046,-0.002,-0.0013,0.0018,-0.0004,-0.0017,0.0016,0.0017,0.0019,0.0047,0.0051,-0.0003,-0.0003,-0.0003,0,-0.0493,-0.0483,-0.0441,-0.043,-0.0411,-0.0356,-0.0349,-0.031,-0.025,-0.0228,-0.0214,-0.0126,-0.0088,-0.004,-0.0036,-0.0017,0.0004,-0.0013,0.0013,0.0015,0.0017,0.0046,0.0051,-0.0004,-0.0004,-0.0004,-0.0004,0,-0.0514,-0.0506,-0.0504,-0.0472,-0.0445,-0.0431,-0.0372,-0.0343,-0.0307,-0.0264,-0.0211,-0.0153,-0.0101,-0.0082,-0.0054,-0.0019,-0.0008,0.0003,0.0016,0.0015,0.0046,0.0052,-0.0007,-0.0006,-0.0006,-0.0005,0,0,-0.0564,-0.0528,-0.0528,-0.0525,-0.0467,-0.0451,-0.0413,-0.0363,-0.0344,-0.0278,-0.0246,-0.0174,-0.014,-0.011,-0.0067,-0.0032,0.0,-0.0012,-0.0009,0.0011,0.0071,0.0126,0.0138,0.0015,0.0016,0.0016,0.0086,0,-0.0594,-0.0602,-0.0562,-0.0562,-0.0561,-0.0497,-0.0469,-0.0415,-0.036,-0.0314,-0.0238,-0.0195,-0.015,-0.013,-0.0085,-0.0017,0.0014,-0.002,0.0074,0.0076,0.0121,0.0146,0.0121,0.0185,0.0092,0.0093,0.0094,0,-0.0625,-0.0627,-0.0641,-0.0617,-0.0609,-0.0595,-0.0546,-0.0511,-0.0423,-0.0382,-0.0313,-0.025,-0.0172,-0.0148,-0.0027,-0.0051,0.0002,0.0052,0.0056,0.0124,0.0143,0.0173,0.02,0.0104,0.0103,0.0102,0.0102,0,-0.0691,-0.0679,-0.0698,-0.0688,-0.0649,-0.064,-0.0613,-0.0537,-0.0514,-0.0425,-0.04,-0.0289,-0.0241,-0.0148,-0.0022,-0.0031,0.0105,0.0104,0.0202,0.0206,0.0214,0.0218,0.0169,0.0169,0.0169,0.0169,0.0169,0,-0.0738,-0.0751,-0.0736,-0.0746,-0.0768,-0.0709,-0.0709,-0.0659,-0.0594,-0.0573,-0.0447,-0.0404,-0.0241,-0.0132,-0.0032,0.0122,0.0101,0.021,0.0234,0.0201,0.0203,0.0153,0.0151,0.0172,0.0171,0.017,0.017,0,-0.0801,-0.0789,-0.0816,-0.0802,-0.0802,-0.0817,-0.0788,-0.0786,-0.0706,-0.0674,-0.065,-0.0489,-0.0334,-0.0163,0.0002,0.0109,0.0244,0.0291,0.0248,0.0267,0.0318,0.0313,0.0406,0.0409,0.0411,0.0413,0.0414,0,-0.0831,-0.0854,-0.0877,-0.0907,-0.0904,-0.0916,-0.0928,-0.0859,-0.085,-0.0727,-0.0722,-0.055,-0.0426,-0.0128,0.0098,0.031,0.0292,0.0401,0.0386,0.0331,0.0346,0.0337,0.0328,0.0374,0.0375,0.0376,0.0377,0,-0.0891,-0.0902,-0.093,-0.1004,-0.1035,-0.1063,-0.1066,-0.1077,-0.0991,-0.0945,-0.085,-0.0734,-0.0399,-0.0128,0.0192,0.0307,0.0376,0.0428,0.0387,0.0326,0.031,0.0321,0.0312,0.0385,0.0384,0.0384,0.0383,0.0383,-0.0933,-0.0981,-0.1033,-0.1102,-0.115,-0.1204,-0.1239,-0.1218,-0.1207,-0.1106,-0.0962,-0.0753,-0.0434,0.0024,0.0255,0.0475,0.0458,0.0501,0.0494,0.0487,0.0479,0.0469,0.0572,0.0572,0.0572,0.0572,0.0573,0,-0.0979,-0.105,-0.1127,-0.1213,-0.1286,-0.1289,-0.1331,-0.133,-0.1329,-0.1182,-0.1047,-0.0691,-0.0329,-0.001,0.0351,0.0567,0.0537,0.059,0.0509,0.05,0.0492,0.0481,0.0576,0.0577,0.0577,0.0578,0,0,-0.1008,-0.11,-0.1153,-0.1307,-0.1378,-0.1455,-0.1488,-0.1464,-0.1373,-0.1243,-0.1063,-0.0754,-0.0347,-0.0086,0.0203,0.039,0.0371,0.04,0.0374,0.0232,0.0221,0.0424,0.0395,0,0,0,0,0]}],[{"header":{"parameterUnit":"m.s-1","parameterCategory":2,"la1":30.2991,"la2":30.254,"lo1":-89.0895,"lo2":-89.0444,"dy":0.0017,"dx":0.0017,"nx":28,"ny":28,"refTime":"2024-10-16T21:00:00:Z","depth":"4","parameterNumber":2,"parameterNumberName":"U-component_of_CURRENTS"},"data":[0,0,0,0,0,0,0,0,0,0,0,0,0,0,0,0,0,0,0,0,0,0,0,0,0,0,0,0,0,0,0,0,0,0,0,0,0,0,0,0,0,0,0,0,0,0,0,0,0,0,0,0,0,0,0,0,0,0,-0.1476,-0.1477,0,-0.1521,-0.1521,-0.1522,-0.156,-0.156,-0.1561,-0.1561,-0.1601,-0.1602,-0.1602,0,0,0,0,0,0,0,0,0,0,0,0,0,-0.1402,-0.1403,-0.1476,-0.1477,-0.1477,-0.1521,-0.1521,-0.1522,-0.1559,-0.156,-0.1561,-0.1561,-0.1601,-0.1602,-0.1602,0,0,0,0,0,0,0,0,0,0,0,0,0,-0.1438,-0.1403,-0.1476,-0.1503,-0.1506,-0.1521,-0.1521,-0.1522,-0.1559,-0.156,-0.1561,-0.1562,-0.1601,-0.1601,-0.1602,-0.159,0,0,-0.1605,-0.1605,0,0,0,0,0,0,0,0,-0.1436,-0.144,-0.1498,-0.1501,-0.1504,-0.1537,-0.151,-0.1545,-0.1559,-0.1537,-0.1561,-0.1562,-0.158,-0.1582,-0.1587,-0.1592,-0.1594,-0.1605,-0.1605,-0.1606,-0.1606,0,0,0,0,0,0,0,-0.1433,-0.1438,-0.1492,-0.1499,-0.1503,-0.1506,-0.1511,-0.1517,-0.1552,-0.1539,-0.1542,-0.155,-0.1581,-0.1586,-0.1588,-0.1595,-0.1605,-0.1606,-0.1606,-0.1606,-0.1666,-0.1667,0,0,0,0,0,0,-0.1431,-0.1436,-0.1491,-0.1494,-0.1473,-0.1506,-0.1513,-0.1524,-0.1552,-0.1557,-0.1549,-0.1551,-0.1584,-0.1587,-0.1589,-0.1648,-0.1606,-0.1606,-0.1607,-0.1665,-0.1667,-0.1668,0,0,0,0,0,0,-0.143,-0.1436,-0.1489,-0.1467,-0.1474,-0.1507,-0.1519,-0.1525,-0.1557,-0.156,-0.1565,-0.1578,-0.1585,-0.1588,-0.162,-0.1648,-0.1607,-0.1608,-0.1664,-0.1666,-0.1667,-0.1721,0,0,0,0,0,0,-0.1427,-0.1435,-0.1453,-0.1467,-0.1475,-0.1517,-0.1519,-0.1525,-0.1559,-0.1563,-0.1586,-0.1589,-0.1586,-0.1619,-0.1621,-0.1648,-0.1608,-0.1663,-0.1665,-0.1667,-0.1717,-0.1724,-0.1729,0,0,0,0,0,-0.1424,-0.1442,-0.1453,-0.1461,-0.1496,-0.1518,-0.1523,-0.1547,-0.156,-0.1578,-0.1596,-0.159,-0.1633,-0.162,-0.1622,-0.165,-0.1662,-0.1664,-0.1667,-0.1715,-0.1723,-0.1729,0,0,0,0,0,0,-0.1421,-0.1448,-0.1461,-0.1488,-0.1511,-0.1526,-0.1547,-0.1562,-0.159,-0.1601,-0.1603,-0.1607,-0.1645,-0.164,-0.1625,-0.1674,-0.1647,-0.165,-0.1683,-0.169,-0.1696,-0.1703,-0.1609,0,0,0,0,0,-0.1427,-0.1449,-0.1473,-0.1497,-0.1511,-0.1534,-0.1551,-0.1568,-0.1589,-0.1604,-0.1621,-0.1637,-0.1651,-0.1666,-0.1675,-0.1701,-0.1697,-0.1721,-0.1727,-0.1732,-0.1739,-0.175,-0.1758,-0.1676,-0.1676,-0.1676,0,0,-0.1432,-0.1451,-0.1465,-0.1498,-0.1518,-0.1545,-0.1547,-0.1581,-0.1611,-0.1602,-0.1654,-0.166,-0.1663,-0.1694,-0.1711,-0.1698,-0.1755,-0.1735,-0.1739,-0.1744,-0.1754,-0.1761,-0.1768,-0.1678,-0.1677,-0.1677,0,0,-0.1443,-0.1472,-0.1492,-0.1516,-0.1553,-0.1568,-0.1585,-0.1618,-0.1644,-0.1684,-0.1687,-0.1713,-0.1738,-0.1747,-0.1751,-0.1795,-0.1785,-0.1802,-0.1841,-0.1852,-0.1859,-0.1864,-0.1878,-0.1885,-0.1806,-0.1806,-0.1806,0,-0.1451,-0.1478,-0.1502,-0.1528,-0.1554,-0.1583,-0.1613,-0.1641,-0.1683,-0.1708,-0.171,-0.1758,-0.1761,-0.1796,-0.1814,-0.181,-0.1815,-0.1813,-0.186,-0.1865,-0.187,-0.1883,-0.1889,-0.1809,-0.1809,-0.1809,-0.1808,0,-0.1467,-0.1503,-0.1519,-0.1563,-0.1595,-0.1626,-0.1667,-0.1708,-0.1742,-0.1766,-0.1818,-0.1824,-0.1851,-0.1858,-0.1851,-0.1893,-0.1886,-0.1864,-0.1841,-0.1882,-0.1892,-0.1898,-0.1813,-0.1812,-0.1811,-0.1811,0,0,-0.1444,-0.1517,-0.1525,-0.1558,-0.1619,-0.1645,-0.1705,-0.1759,-0.1806,-0.1843,-0.1896,-0.1919,-0.1927,-0.1933,-0.1931,-0.1944,-0.1985,-0.1927,-0.1926,-0.194,-0.2019,-0.1918,-0.1914,-0.1974,-0.1975,-0.1976,-0.2015,0,-0.1451,-0.1503,-0.1543,-0.1607,-0.1637,-0.1695,-0.1749,-0.1806,-0.1854,-0.1913,-0.1932,-0.1975,-0.1955,-0.1975,-0.1986,-0.1987,-0.2003,-0.1977,-0.1977,-0.1978,-0.1882,-0.1918,-0.198,-0.2019,-0.2021,-0.2021,-0.2022,0,-0.1445,-0.1486,-0.1544,-0.1636,-0.1657,-0.1705,-0.18,-0.1852,-0.1935,-0.1974,-0.2018,-0.2036,-0.2073,-0.2044,-0.2068,-0.2055,-0.2046,-0.204,-0.2041,-0.193,-0.1887,-0.1967,-0.2033,-0.2032,-0.2031,-0.203,-0.203,0,-0.1397,-0.1486,-0.1535,-0.1565,-0.1668,-0.1719,-0.1779,-0.187,-0.1924,-0.2014,-0.2059,-0.21,-0.2128,-0.2126,-0.2118,-0.21,-0.214,-0.2105,-0.2007,-0.2,-0.2056,-0.2049,-0.212,-0.212,-0.212,-0.212,-0.212,0,-0.137,-0.1415,-0.1524,-0.1549,-0.1624,-0.1706,-0.1791,-0.186,-0.1959,-0.2019,-0.2084,-0.2124,-0.215,-0.2174,-0.2151,-0.21,-0.2163,-0.2022,-0.2003,-0.2079,-0.2074,-0.2061,-0.2053,-0.2122,-0.2121,-0.2121,-0.2121,0,-0.1299,-0.1372,-0.1436,-0.1556,-0.16,-0.1651,-0.1789,-0.1844,-0.1952,-0.2032,-0.2063,-0.2155,-0.2179,-0.2198,-0.2203,-0.213,-0.2099,-0.2066,-0.2169,-0.2154,-0.1946,-0.1941,-0.1951,-0.1948,-0.1945,-0.1943,-0.1941,0,-0.1264,-0.1288,-0.142,-0.1463,-0.1522,-0.1617,-0.1682,-0.1816,-0.1873,-0.2031,-0.2053,-0.2135,-0.2174,-0.2103,-0.2131,-0.2092,-0.206,-0.2036,-0.1966,-0.1947,-0.1929,-0.1928,-0.1927,-0.1936,-0.1936,-0.1935,-0.1934,0,-0.1189,-0.1246,-0.1297,-0.1385,-0.1463,-0.1543,-0.1645,-0.1679,-0.183,-0.1949,-0.1991,-0.2005,-0.2038,-0.2027,-0.202,-0.1986,-0.2044,-0.2006,-0.2011,-0.1945,-0.193,-0.1914,-0.1916,-0.1924,-0.1926,-0.1927,-0.1927,0,-0.113,-0.1147,-0.1221,-0.1288,-0.1382,-0.1436,-0.1509,-0.1584,-0.1659,-0.1836,-0.1847,-0.1935,-0.2025,-0.1975,-0.1968,-0.193,-0.1885,-0.1808,-0.1822,-0.1833,-0.1773,-0.1735,-0.1659,0,0,0,0,0,-0.1063,-0.107,-0.1121,-0.1192,-0.1282,-0.1334,-0.147,-0.1548,-0.17,-0.1687,-0.1763,-0.1788,-0.179,-0.1835,-0.1765,-0.19,-0.1884,-0.1812,-0.1802,-0.1871,-0.1882,-0.1821,0,0,0,0,0,0,-0.1018,-0.1054,-0.1077,-0.1094,-0.1122,-0.121,-0.1288,-0.1396,-0.1401,-0.1556,-0.1561,-0.1676,-0.1693,-0.1793,-0.1723,-0.1736,-0.1694,-0.1873,-0.1868,-0.1865,-0.1875,-0.1884,-0.1824,0,0,0,0,0]},{"header":{"parameterUnit":"m.s-1","parameterCategory":2,"la1":30.2991,"la2":30.254,"lo1":-89.0895,"lo2":-89.0444,"dy":0.0017,"dx":0.0017,"nx":28,"ny":28,"refTime":"2024-10-16T21:00:00:Z","depth":"4","parameterNumber":3,"parameterNumberName":"V-component_of_CURRENTS"},"data":[0,0,0,0,0,0,0,0,0,0,0,0,0,0,0,0,0,0,0,0,0,0,0,0,0,0,0,0,0,0,0,0,0,0,0,0,0,0,0,0,0,0,0,0,0,0,0,0,0,0,0,0,0,0,0,0,0,0,-0.0064,-0.0064,0,-0.0009,-0.0009,-0.0008,0.0025,0.0025,0.0025,0.0025,0.0097,0.0099,0.0101,0,0,0,0,0,0,0,0,0,0,0,0,0,-0.0107,-0.0107,-0.0064,-0.0064,-0.0063,-0.001,-0.0009,-0.0008,0.0025,0.0025,0.0025,0.0025,0.0097,0.0099,0.0101,0,0,0,0,0,0,0,0,0,0,0,0,0,-0.0074,-0.0107,-0.0064,-0.004,-0.0037,-0.001,-0.0009,-0.0008,0.0025,0.0025,0.0025,0.0025,0.0096,0.0099,0.0101,0.0113,0,0,0.0109,0.0111,0,0,0,0,0,0,0,0,-0.0076,-0.0073,-0.0044,-0.0042,-0.0039,0.0001,0.0003,0.0034,0.0025,0.0001,0.0025,0.0025,0.0066,0.0072,0.0081,0.0117,0.012,0.011,0.0111,0.0112,0.0113,0,0,0,0,0,0,0,-0.0078,-0.0075,-0.0042,-0.0044,-0.004,-0.0021,-0.0016,0.0009,0.0032,0.0003,0.0006,0.0012,0.0068,0.0079,0.0083,0.0121,0.011,0.0112,0.0114,0.0115,0.0174,0.0174,0,0,0,0,0,0,-0.0087,-0.0077,-0.0044,-0.0041,-0.0057,-0.002,-0.0015,-0.0012,0.0032,0.0038,0.0011,0.0013,0.0074,0.008,0.0086,0.0102,0.0112,0.0115,0.0116,0.0174,0.0174,0.0174,0,0,0,0,0,0,-0.0089,-0.0085,-0.0046,-0.0057,-0.0051,-0.002,-0.0017,-0.0011,-0.0002,0.0038,0.0045,0.0014,0.0074,0.0082,0.0106,0.0106,0.0116,0.0119,0.0174,0.0174,0.0174,0.0136,0,0,0,0,0,0,-0.009,-0.0086,-0.009,-0.0058,-0.0051,-0.0035,-0.0017,-0.001,0.0001,0.0004,0.0043,0.005,0.0075,0.0102,0.0109,0.0109,0.0121,0.0174,0.0174,0.0174,0.0137,0.0135,0.0132,0,0,0,0,0,-0.0092,-0.0098,-0.009,-0.0086,-0.0056,-0.0035,-0.003,-0.0007,0.0001,0.0003,0.003,0.0049,0.0107,0.0104,0.0112,0.0114,0.0174,0.0174,0.0174,0.0138,0.0135,0.0132,0,0,0,0,0,0,-0.0118,-0.0094,-0.0085,-0.0084,-0.0064,-0.003,-0.0028,-0.0011,0.0011,0.0012,0.0049,0.0058,0.0079,0.0101,0.0097,0.013,0.0143,0.0144,0.0113,0.011,0.0108,0.0102,0.0123,0,0,0,0,0,-0.0127,-0.0127,-0.0097,-0.0098,-0.009,-0.0061,-0.0051,-0.0035,-0.0009,0.0001,0.003,0.0059,0.0085,0.01,0.0126,0.0144,0.0168,0.015,0.0148,0.0145,0.0146,0.0179,0.018,0.0174,0.0174,0.0174,0,0,-0.0138,-0.0125,-0.0125,-0.0104,-0.0088,-0.0082,-0.0054,-0.0043,-0.0035,0.0005,0.0022,0.0051,0.0088,0.0109,0.012,0.0127,0.0159,0.0145,0.0143,0.0145,0.0179,0.018,0.018,0.0174,0.0174,0.0174,0,0,-0.0162,-0.0149,-0.0157,-0.0143,-0.0122,-0.0102,-0.0101,-0.0069,-0.0053,-0.0033,-0.0002,0.0027,0.0064,0.0095,0.0114,0.0113,0.0143,0.0119,0.0105,0.0137,0.0137,0.0138,0.0164,0.0168,0.0119,0.0119,0.0119,0,-0.0177,-0.0182,-0.0156,-0.0158,-0.0152,-0.0114,-0.012,-0.0096,-0.006,-0.0045,-0.0035,0.003,0.0059,0.0094,0.0094,0.0108,0.0128,0.0112,0.0133,0.0135,0.0136,0.0163,0.0167,0.0117,0.0118,0.0118,0.0118,0,-0.0203,-0.0208,-0.0212,-0.0203,-0.0191,-0.019,-0.0155,-0.0139,-0.0115,-0.0086,-0.0048,-0.0002,0.0037,0.0051,0.0073,0.0101,0.0112,0.0124,0.0139,0.0135,0.0163,0.0168,0.0115,0.0115,0.0116,0.0116,0,0,-0.0232,-0.0233,-0.0234,-0.0243,-0.0216,-0.0211,-0.0194,-0.0166,-0.0155,-0.011,-0.0088,-0.0035,-0.0003,0.0021,0.0057,0.0088,0.0116,0.0107,0.011,0.0129,0.0182,0.0187,0.0194,0.013,0.0131,0.0132,0.0195,0,-0.0262,-0.029,-0.0272,-0.0292,-0.0303,-0.0263,-0.0252,-0.0219,-0.0181,-0.0149,-0.0086,-0.0054,-0.0016,0.0,0.004,0.0101,0.0129,0.0097,0.0187,0.0189,0.0192,0.02,0.0135,0.0199,0.02,0.0201,0.0202,0,-0.0289,-0.0307,-0.034,-0.0345,-0.0344,-0.0346,-0.0321,-0.0304,-0.0241,-0.0211,-0.0155,-0.0102,-0.0037,-0.0015,0.0092,0.007,0.0119,0.0164,0.0168,0.0191,0.0205,0.0207,0.0212,0.0211,0.0211,0.021,0.0209,0,-0.0329,-0.035,-0.0383,-0.0384,-0.0381,-0.0385,-0.0376,-0.0327,-0.0315,-0.0248,-0.023,-0.0137,-0.0095,-0.0012,0.0096,0.009,0.021,0.0213,0.0264,0.0264,0.0257,0.0255,0.0274,0.0274,0.0273,0.0273,0.0273,0,-0.0361,-0.0386,-0.041,-0.0428,-0.0464,-0.0437,-0.0451,-0.0421,-0.038,-0.0366,-0.0269,-0.0233,-0.0094,-0.0002,0.0088,0.0202,0.0207,0.0265,0.0284,0.0239,0.0234,0.0261,0.0258,0.0276,0.0275,0.0275,0.0274,0,-0.0391,-0.0407,-0.045,-0.0473,-0.0485,-0.0509,-0.0517,-0.0521,-0.047,-0.0448,-0.0431,-0.0304,-0.0178,-0.0036,0.011,0.0184,0.0294,0.0326,0.0271,0.0285,0.0325,0.032,0.0384,0.0385,0.0385,0.0386,0.0386,0,-0.0406,-0.0435,-0.0494,-0.0531,-0.0547,-0.0581,-0.0604,-0.0574,-0.0572,-0.049,-0.0481,-0.0352,-0.0256,-0.004,0.011,0.0293,0.0311,0.0366,0.0344,0.0326,0.0338,0.0332,0.0326,0.0387,0.0388,0.0388,0.0388,0,-0.0434,-0.0461,-0.0499,-0.0585,-0.0632,-0.0678,-0.0702,-0.0708,-0.066,-0.0619,-0.0521,-0.0384,-0.0236,-0.005,0.0101,0.0228,0.0335,0.0373,0.0372,0.0352,0.0331,0.0341,0.0335,0.039,0.039,0.039,0.0389,0,-0.0452,-0.0493,-0.0557,-0.0626,-0.0698,-0.0753,-0.0759,-0.0746,-0.0732,-0.0631,-0.06,-0.0417,-0.0302,-0.0084,0.0056,0.0191,0.0213,0.0242,0.0248,0.0248,0.0195,0.0148,0.017,0,0,0,0,0,-0.0463,-0.0518,-0.0594,-0.0674,-0.0749,-0.0789,-0.0816,-0.0806,-0.0761,-0.0707,-0.065,-0.0508,-0.0268,-0.015,-0.0019,0.0054,0.0228,0.0211,0.0261,0.0403,0.04,0.0363,0,0,0,0,0,0,-0.0475,-0.0548,-0.0596,-0.0701,-0.0764,-0.0839,-0.0862,-0.0832,-0.0787,-0.0718,-0.0591,-0.0491,-0.026,-0.0353,-0.0023,0.0024,0.0071,0.0336,0.0339,0.0404,0.0402,0.04,0.0361,0,0,0,0,0]}]]